QPF
0.23 0.18 0.14 0.11 0.09 0.06 0.03 0.01 0.00 0.00 0.00 0.00 0.00 0.00 0.00 0.00 0.00 0.00 0.01 0.04 0.06 0.04 0.03 0.01 0.01 0.00 0.00 0.01 0.01 0.02 0.02 0.02 0.01 0.00 0.00 0.00 0.00 0.00
0.23 0.17 0.12 0.09 0.07 0.05 0.03 0.01 0.00 0.00 0.00 0.00 0.00 0.00 0.00 0.00 0.00 0.00 0.00 0.02 0.05 0.05 0.03 0.02 0.01 0.00 0.00 0.00 0.00 0.01 0.01 0.01 0.01 0.00 0.00 0.00 0.00 0.00
0.27 0.20 0.13 0.09 0.06 0.04 0.03 0.02 0.01 0.00 0.00 0.00 0.00 0.00 0.00 0.00 0.00 0.00 0.00 0.00 0.01 0.02 0.02 0.01 0.01 0.00 0.00 0.00 0.00 0.00 0.00 0.00 0.00 0.00 0.00 0.00 0.00 0.00
0.19 0.16 0.13 0.10 0.08 0.06 0.04 0.02 0.01 0.00 0.00 0.00 0.00 0.00 0.00 0.00 0.00 0.00 0.00 0.01 0.01 0.01 0.01 0.01 0.01 0.00 0.00 0.00 0.00 0.00 0.00 0.00 0.00 0.00 0.00 0.00 0.00 0.00
0.10 0.09 0.09 0.09 0.08 0.06 0.04 0.02 0.01 0.00 0.00 0.00 0.00 0.00 0.00 0.00 0.00 0.00 0.00 0.01 0.01 0.02 0.02 0.02 0.03 0.03 0.03 0.03 0.02 0.01 0.01 0.01 0.01 0.00 0.00 0.00 0.00 0.00
0.07 0.08 0.09 0.07 0.05 0.04 0.03 0.01 0.01 0.00 0.00 0.00 0.00 0.00 0.00 0.00 0.00 0.00 0.00 0.00 0.01 0.02 0.04 0.06 0.06 0.06 0.06 0.05 0.04 0.04 0.05 0.05 0.05 0.03 0.02 0.02 0.01 0.01
0.05 0.07 0.08 0.06 0.04 0.03 0.02 0.01 0.01 0.00 0.00 0.00 0.00 0.00 0.00 0.00 0.00 0.00 0.00 0.00 0.01 0.01 0.03 0.05 0.06 0.06 0.05 0.05 0.06 0.07 0.07 0.06 0.06 0.06 0.05 0.05 0.03 0.02
0.07 0.09 0.08 0.06 0.06 0.05 0.02 0.01 0.01 0.00 0.00 0.00 0.00 0.00 0.00 0.00 0.00 0.00 0.01 0.01 0.01 0.02 0.03 0.06 0.07 0.07 0.07 0.06 0.06 0.07 0.06 0.06 0.06 0.06 0.06 0.06 0.05 0.05
0.06 0.10 0.14 0.12 0.11 0.10 0.06 0.03 0.01 0.01 0.00 0.00 0.00 0.00 0.00 0.00 0.00 0.01 0.01 0.02 0.03 0.04 0.04 0.06 0.06 0.06 0.06 0.05 0.05 0.04 0.04 0.03 0.03 0.03 0.04 0.05 0.07 0.09
0.04 0.06 0.12 0.16 0.17 0.12 0.11 0.11 0.07 0.03 0.02 0.01 0.00 0.00 0.00 0.00 0.00 0.00 0.00 0.01 0.01 0.02 0.02 0.03 0.04 0.04 0.03 0.03 0.03 0.02 0.02 0.02 0.02 0.02 0.03 0.05 0.06 0.08
0.02 0.04 0.07 0.08 0.11 0.12 0.11 0.08 0.06 0.05 0.04 0.03 0.01 0.00 0.00 0.00 0.00 0.00 0.00 0.00 0.00 0.00 0.00 0.01 0.01 0.01 0.01 0.01 0.01 0.01 0.01 0.01 0.01 0.02 0.02 0.02 0.03 0.04
0.01 0.03 0.04 0.04 0.06 0.07 0.07 0.05 0.04 0.04 0.04 0.03 0.02 0.01 0.01 0.00 0.00 0.00 0.00 0.00 0.00 0.00 0.00 0.00 0.00 0.00 0.00 0.00 0.00 0.00 0.00 0.00 0.00 0.00 0.01 0.01 0.01 0.01
0.00 0.02 0.02 0.02 0.03 0.05 0.06 0.05 0.05 0.05 0.03 0.02 0.01 0.01 0.01 0.01 0.00 0.00 0.00 0.00 0.00 0.00 0.00 0.00 0.00 0.00 0.00 0.00 0.00 0.00 0.00 0.00 0.00 0.00 0.00 0.00 0.00 0.00
0.00 0.00 0.01 0.01 0.01 0.02 0.03 0.04 0.05 0.05 0.04 0.03 0.02 0.02 0.01 0.01 0.00 0.00 0.00 0.00 0.00 0.00 0.00 0.00 0.00 0.00 0.00 0.00 0.00 0.00 0.00 0.00 0.00 0.00 0.00 0.00 0.00 0.00
0.00 0.00 0.00 0.01 0.00 0.01 0.01 0.02 0.03 0.05 0.04 0.03 0.02 0.03 0.02 0.01 0.00 0.00 0.00 0.00 0.00 0.00 0.00 0.00 0.00 0.00 0.00 0.00 0.00 0.00 0.00 0.00 0.00 0.00 0.00 0.00 0.00 0.00
0.00 0.00 0.00 0.00 0.00 0.01 0.01 0.01 0.01 0.03 0.03 0.02 0.01 0.01 0.01 0.00 0.00 0.00 0.00 0.00 0.00 0.00 0.00 0.00 0.00 0.00 0.00 0.00 0.00 0.00 0.00 0.00 0.00 0.00 0.00 0.00 0.00 0.00
0.00 0.00 0.00 0.00 0.00 0.00 0.01 0.01 0.01 0.01 0.02 0.01 0.01 0.01 0.00 0.00 0.00 0.00 0.00 0.00 0.00 0.00 0.00 0.00 0.00 0.00 0.00 0.00 0.00 0.00 0.00 0.00 0.00 0.00 0.00 0.00 0.00 0.00
0.00 0.00 0.01 0.01 0.00 0.00 0.01 0.01 0.01 0.01 0.01 0.01 0.00 0.00 0.00 0.00 0.00 0.00 0.00 0.00 0.00 0.00 0.00 0.00 0.00 0.00 0.00 0.00 0.00 0.00 0.00 0.00 0.00 0.00 0.00 0.00 0.00 0.00
0.00 0.00 0.01 0.01 0.00 0.00 0.00 0.00 0.00 0.00 0.01 0.01 0.00 0.00 0.00 0.00 0.00 0.00 0.00 0.00 0.00 0.00 0.00 0.00 0.00 0.00 0.00 0.00 0.00 0.00 0.00 0.00 0.00 0.00 0.00 0.00 0.00 0.00
0.00 0.00 0.00 0.00 0.01 0.01 0.00 0.00 0.00 0.00 0.00 0.00 0.00 0.00 0.00 0.00 0.00 0.00 0.00 0.00 0.00 0.00 0.00 0.00 0.00 0.00 0.00 0.00 0.00 0.00 0.00 0.00 0.00 0.00 0.00 0.00 0.00 0.00
0.00 0.00 0.00 0.00 0.00 0.00 0.00 0.00 0.00 0.00 0.00 0.00 0.00 0.00 0.00 0.00 0.00 0.00 0.00 0.00 0.00 0.00 0.00 0.00 0.00 0.00 0.00 0.00 0.00 0.00 0.00 0.00 0.00 0.00 0.00 0.00 0.00 0.00
0.00 0.00 0.00 0.00 0.00 0.00 0.00 0.00 0.00 0.00 0.00 0.00 0.00 0.00 0.00 0.00 0.00 0.00 0.00 0.00 0.00 0.00 0.00 0.00 0.00 0.00 0.00 0.00 0.00 0.00 0.00 0.00 0.00 0.00 0.00 0.00 0.00 0.00
0.00 0.00 0.00 0.00 0.00 0.00 0.00 0.00 0.00 0.00 0.00 0.00 0.00 0.00 0.00 0.00 0.00 0.00 0.00 0.00 0.00 0.00 0.00 0.00 0.00 0.00 0.00 0.00 0.00 0.00 0.00 0.00 0.00 0.00 0.00 0.00 0.00 0.00
MSLP
1014.28 1014.69 1015.13 1015.56 1015.96 1016.28 1016.53 1016.68 1016.76 1016.76 1016.72 1016.63 1016.51 1016.38 1016.24 1016.10 1015.97 1015.88 1015.83 1015.86 1015.97 1016.18 1016.46 1016.81 1017.18 1017.55 1017.87 1018.12 1018.30 1018.42 1018.49 1018.55 1018.63 1018.74 1018.88 1019.03 1019.19 1019.30
1014.03 1014.40 1014.81 1015.21 1015.58 1015.89 1016.15 1016.33 1016.45 1016.51 1016.52 1016.49 1016.42 1016.32 1016.19 1016.03 1015.88 1015.75 1015.66 1015.64 1015.72 1015.89 1016.16 1016.50 1016.87 1017.24 1017.57 1017.82 1018.00 1018.11 1018.18 1018.23 1018.29 1018.39 1018.54 1018.71 1018.87 1019.01
1013.89 1014.21 1014.56 1014.92 1015.25 1015.54 1015.79 1016.00 1016.16 1016.28 1016.35 1016.39 1016.38 1016.32 1016.22 1016.08 1015.91 1015.76 1015.64 1015.58 1015.62 1015.76 1016.00 1016.31 1016.66 1017.01 1017.31 1017.54 1017.70 1017.79 1017.83 1017.85 1017.90 1017.99 1018.13 1018.30 1018.49 1018.65
1013.86 1014.12 1014.41 1014.71 1014.99 1015.26 1015.50 1015.72 1015.91 1016.08 1016.22 1016.33 1016.38 1016.38 1016.32 1016.20 1016.05 1015.89 1015.75 1015.67 1015.68 1015.79 1015.99 1016.26 1016.57 1016.87 1017.14 1017.33 1017.45 1017.49 1017.49 1017.48 1017.50 1017.56 1017.69 1017.87 1018.07 1018.25
1013.92 1014.12 1014.35 1014.59 1014.82 1015.06 1015.28 1015.51 1015.72 1015.93 1016.13 1016.29 1016.41 1016.46 1016.45 1016.37 1016.24 1016.10 1015.96 1015.87 1015.86 1015.94 1016.11 1016.34 1016.61 1016.86 1017.08 1017.22 1017.28 1017.28 1017.23 1017.17 1017.15 1017.18 1017.29 1017.45 1017.65 1017.84
1014.06 1014.20 1014.37 1014.55 1014.74 1014.94 1015.15 1015.36 1015.59 1015.82 1016.05 1016.25 1016.42 1016.52 1016.55 1016.52 1016.43 1016.31 1016.20 1016.12 1016.11 1016.18 1016.33 1016.53 1016.76 1016.97 1017.13 1017.23 1017.24 1017.18 1017.08 1016.98 1016.91 1016.90 1016.97 1017.12 1017.30 1017.50
1014.27 1014.35 1014.47 1014.60 1014.75 1014.91 1015.09 1015.29 1015.51 1015.74 1015.98 1016.20 1016.39 1016.53 1016.60 1016.61 1016.56 1016.49 1016.41 1016.37 1016.38 1016.46 1016.60 1016.78 1016.99 1017.17 1017.30 1017.35 1017.32 1017.22 1017.08 1016.94 1016.83 1016.78 1016.81 1016.92 1017.08 1017.26
1014.52 1014.56 1014.62 1014.71 1014.82 1014.94 1015.09 1015.27 1015.47 1015.68 1015.91 1016.13 1016.33 1016.48 1016.58 1016.63 1016.63 1016.60 1016.58 1016.58 1016.63 1016.73 1016.88 1017.07 1017.26 1017.43 1017.55 1017.58 1017.53 1017.41 1017.25 1017.07 1016.93 1016.84 1016.83 1016.90 1017.03 1017.19
1014.79 1014.79 1014.82 1014.87 1014.94 1015.04 1015.16 1015.30 1015.47 1015.66 1015.86 1016.06 1016.24 1016.40 1016.52 1016.59 1016.64 1016.67 1016.69 1016.75 1016.84 1016.98 1017.16 1017.36 1017.56 1017.74 1017.85 1017.89 1017.85 1017.73 1017.57 1017.39 1017.22 1017.11 1017.07 1017.09 1017.18 1017.31
1015.08 1015.03 1015.03 1015.06 1015.11 1015.19 1015.28 1015.39 1015.52 1015.68 1015.84 1016.02 1016.18 1016.33 1016.46 1016.57 1016.65 1016.72 1016.80 1016.90 1017.04 1017.21 1017.42 1017.65 1017.87 1018.06 1018.20 1018.27 1018.25 1018.16 1018.02 1017.86 1017.70 1017.58 1017.51 1017.51 1017.55 1017.64
1015.34 1015.28 1015.26 1015.27 1015.31 1015.37 1015.44 1015.53 1015.64 1015.76 1015.90 1016.04 1016.19 1016.34 1016.48 1016.60 1016.72 1016.83 1016.95 1017.09 1017.26 1017.47 1017.70 1017.94 1018.18 1018.40 1018.57 1018.67 1018.71 1018.67 1018.59 1018.46 1018.33 1018.22 1018.14 1018.11 1018.12 1018.16
1015.59 1015.51 1015.48 1015.50 1015.53 1015.59 1015.65 1015.73 1015.82 1015.92 1016.04 1016.17 1016.32 1016.46 1016.61 1016.76 1016.90 1017.05 1017.20 1017.36 1017.55 1017.77 1018.00 1018.26 1018.51 1018.75 1018.95 1019.10 1019.20 1019.23 1019.21 1019.15 1019.07 1018.98 1018.91 1018.86 1018.84 1018.83
1015.82 1015.74 1015.72 1015.73 1015.77 1015.83 1015.90 1015.98 1016.06 1016.16 1016.28 1016.41 1016.56 1016.73 1016.90 1017.07 1017.24 1017.40 1017.57 1017.75 1017.94 1018.14 1018.37 1018.61 1018.87 1019.11 1019.35 1019.54 1019.70 1019.80 1019.86 1019.87 1019.85 1019.80 1019.75 1019.69 1019.64 1019.59
1016.06 1015.98 1015.96 1015.99 1016.04 1016.11 1016.19 1016.27 1016.37 1016.48 1016.61 1016.77 1016.94 1017.13 1017.33 1017.53 1017.72 1017.90 1018.08 1018.25 1018.42 1018.61 1018.81 1019.02 1019.26 1019.51 1019.75 1019.99 1020.20 1020.37 1020.50 1020.58 1020.62 1020.62 1020.59 1020.54 1020.47 1020.39
1016.34 1016.27 1016.26 1016.29 1016.35 1016.43 1016.51 1016.61 1016.73 1016.87 1017.03 1017.21 1017.42 1017.65 1017.88 1018.11 1018.32 1018.52 1018.69 1018.85 1019.00 1019.15 1019.31 1019.49 1019.70 1019.93 1020.18 1020.43 1020.68 1020.91 1021.10 1021.25 1021.35 1021.39 1021.39 1021.34 1021.25 1021.14
1016.70 1016.64 1016.63 1016.66 1016.72 1016.80 1016.90 1017.01 1017.15 1017.31 1017.50 1017.73 1017.98 1018.24 1018.51 1018.77 1019.01 1019.21 1019.38 1019.52 1019.64 1019.75 1019.87 1020.01 1020.18 1020.39 1020.63 1020.89 1021.16 1021.42 1021.66 1021.85 1021.99 1022.06 1022.08 1022.03 1021.93 1021.79
1017.18 1017.11 1017.10 1017.13 1017.18 1017.25 1017.35 1017.47 1017.62 1017.80 1018.03 1018.28 1018.57 1018.88 1019.18 1019.47 1019.72 1019.93 1020.10 1020.22 1020.31 1020.39 1020.47 1020.57 1020.71 1020.89 1021.11 1021.36 1021.63 1021.91 1022.16 1022.37 1022.52 1022.62 1022.64 1022.59 1022.48 1022.31
1017.79 1017.72 1017.70 1017.71 1017.74 1017.79 1017.88 1017.99 1018.15 1018.34 1018.59 1018.87 1019.19 1019.52 1019.85 1020.15 1020.42 1020.64 1020.80 1020.91 1020.99 1021.04 1021.09 1021.16 1021.27 1021.42 1021.62 1021.85 1022.11 1022.37 1022.61 1022.82 1022.96 1023.05 1023.06 1023.00 1022.87 1022.68
1018.51 1018.45 1018.41 1018.39 1018.39 1018.42 1018.48 1018.58 1018.73 1018.93 1019.17 1019.47 1019.80 1020.14 1020.48 1020.79 1021.07 1021.29 1021.45 1021.56 1021.63 1021.67 1021.71 1021.76 1021.85 1021.98 1022.15 1022.36 1022.59 1022.82 1023.03 1023.21 1023.33 1023.38 1023.37 1023.28 1023.13 1022.93
1019.31 1019.24 1019.19 1019.15 1019.12 1019.12 1019.15 1019.23 1019.35 1019.54 1019.77 1020.06 1020.39 1020.73 1021.06 1021.37 1021.64 1021.86 1022.02 1022.14 1022.21 1022.25 1022.30 1022.35 1022.44 1022.55 1022.71 1022.89 1023.08 1023.27 1023.44 1023.57 1023.64 1023.65 1023.59 1023.48 1023.30 1023.08
1020.12 1020.05 1019.99 1019.92 1019.87 1019.84 1019.84 1019.89 1019.99 1020.15 1020.36 1020.63 1020.93 1021.25 1021.57 1021.87 1022.12 1022.34 1022.50 1022.62 1022.71 1022.77 1022.83 1022.91 1023.00 1023.12 1023.26 1023.42 1023.58 1023.72 1023.84 1023.91 1023.92 1023.88 1023.78 1023.63 1023.43 1023.20
1020.86 1020.80 1020.73 1020.65 1020.58 1020.52 1020.50 1020.52 1020.59 1020.72 1020.90 1021.14 1021.40 1021.69 1021.98 1022.25 1022.50 1022.70 1022.87 1023.00 1023.11 1023.20 1023.29 1023.39 1023.50 1023.64 1023.78 1023.92 1024.06 1024.16 1024.23 1024.24 1024.21 1024.11 1023.97 1023.78 1023.56 1023.31
1021.45 1021.41 1021.35 1021.27 1021.18 1021.11 1021.07 1021.06 1021.11 1021.20 1021.35 1021.55 1021.78 1022.03 1022.28 1022.52 1022.75 1022.94 1023.11 1023.26 1023.39 1023.52 1023.64 1023.78 1023.93 1024.08 1024.23 1024.38 1024.49 1024.57 1024.60 1024.58 1024.50 1024.36 1024.18 1023.96 1023.72 1023.46
Thickness
5695 5693 5691 5690 5690 5689 5689 5687 5683 5679 5680 5686 5690 5695 5697 5698 5699 5699 5698 5698 5697 5695 5693 5691 5688 5686 5685 5684 5683 5682 5681 5680 5679 5679 5679 5679 5679 5679
5688 5686 5685 5684 5683 5683 5683 5682 5681 5678 5675 5679 5682 5686 5689 5691 5693 5693 5693 5693 5693 5691 5689 5687 5685 5682 5681 5680 5679 5678 5677 5676 5675 5675 5675 5674 5674 5674
5679 5678 5677 5677 5676 5676 5675 5675 5674 5673 5670 5672 5675 5678 5681 5683 5685 5687 5688 5688 5688 5687 5686 5684 5681 5679 5677 5676 5675 5674 5674 5673 5672 5671 5671 5670 5670 5669
5668 5668 5668 5669 5668 5668 5667 5667 5666 5666 5665 5664 5666 5669 5672 5675 5677 5679 5681 5682 5682 5682 5682 5680 5678 5676 5674 5673 5672 5671 5670 5669 5668 5668 5667 5667 5666 5665
5658 5658 5659 5659 5658 5659 5659 5659 5659 5659 5658 5657 5658 5661 5663 5667 5669 5672 5674 5675 5676 5676 5676 5676 5674 5672 5671 5670 5668 5667 5667 5666 5665 5664 5664 5663 5662 5661
5649 5650 5651 5650 5650 5651 5651 5651 5651 5651 5650 5651 5651 5653 5656 5659 5662 5664 5665 5667 5668 5670 5670 5669 5668 5667 5666 5665 5664 5663 5662 5662 5661 5661 5660 5659 5658 5657
5642 5643 5644 5645 5645 5646 5646 5645 5645 5644 5644 5645 5645 5647 5649 5652 5655 5657 5658 5660 5661 5662 5662 5661 5660 5659 5658 5658 5657 5657 5657 5657 5656 5656 5655 5655 5654 5653
5635 5636 5638 5640 5641 5642 5642 5642 5642 5640 5640 5640 5640 5642 5644 5647 5649 5652 5653 5654 5654 5655 5655 5652 5651 5650 5649 5649 5649 5650 5650 5650 5650 5649 5649 5649 5648 5647
5627 5629 5632 5634 5635 5635 5636 5637 5637 5638 5639 5638 5637 5638 5640 5643 5645 5646 5647 5648 5648 5648 5648 5645 5643 5642 5641 5640 5642 5642 5642 5642 5641 5641 5640 5639 5638 5637
5618 5620 5623 5625 5628 5629 5629 5629 5630 5631 5633 5635 5635 5636 5638 5640 5641 5642 5642 5642 5642 5641 5643 5638 5635 5634 5634 5634 5634 5634 5634 5633 5631 5631 5630 5628 5627 5625
5608 5611 5615 5617 5621 5623 5623 5623 5624 5625 5628 5629 5631 5632 5634 5636 5637 5638 5637 5636 5634 5634 5634 5633 5629 5629 5628 5627 5626 5626 5625 5623 5622 5621 5619 5617 5615 5612
5599 5602 5606 5610 5614 5617 5618 5619 5620 5621 5623 5624 5626 5627 5628 5630 5632 5634 5634 5632 5630 5628 5628 5628 5625 5625 5622 5618 5617 5617 5616 5613 5611 5609 5606 5604 5601 5597
5590 5593 5597 5602 5606 5610 5613 5615 5617 5618 5619 5620 5620 5621 5622 5624 5626 5627 5629 5629 5627 5624 5623 5624 5622 5620 5618 5614 5610 5607 5606 5603 5600 5596 5592 5588 5585 5581
5583 5586 5590 5595 5600 5604 5608 5612 5614 5615 5615 5616 5616 5616 5617 5618 5619 5620 5621 5620 5620 5619 5619 5621 5619 5617 5615 5610 5605 5600 5597 5593 5589 5584 5579 5575 5571 5567
5578 5581 5585 5589 5594 5598 5603 5606 5609 5610 5611 5611 5611 5611 5612 5612 5614 5614 5613 5614 5613 5613 5614 5615 5615 5613 5611 5606 5599 5595 5590 5584 5579 5574 5569 5564 5560 5556
5575 5577 5581 5584 5588 5593 5598 5600 5603 5606 5608 5608 5608 5608 5608 5608 5608 5609 5608 5609 5607 5605 5606 5608 5609 5608 5603 5598 5594 5589 5584 5578 5572 5567 5563 5558 5553 5549
5575 5577 5580 5583 5587 5591 5594 5597 5600 5602 5603 5604 5604 5604 5604 5604 5604 5604 5605 5605 5603 5600 5598 5599 5600 5599 5596 5593 5587 5583 5578 5573 5568 5564 5560 5555 5550 5545
5579 5579 5581 5584 5587 5589 5592 5594 5597 5598 5600 5601 5601 5601 5601 5601 5600 5600 5601 5600 5598 5596 5595 5595 5595 5595 5592 5586 5580 5578 5574 5570 5566 5563 5559 5554 5549 5545
5582 5582 5583 5584 5586 5588 5591 5593 5594 5595 5597 5598 5598 5598 5598 5598 5598 5597 5597 5596 5595 5594 5592 5592 5593 5593 5591 5585 5576 5573 5571 5567 5565 5561 5557 5552 5548 5544
5582 5582 5583 5585 5586 5588 5589 5591 5592 5593 5594 5595 5596 5596 5596 5596 5596 5595 5595 5595 5594 5592 5591 5590 5589 5589 5587 5583 5576 5570 5567 5565 5562 5559 5555 5552 5548 5545
5584 5584 5585 5586 5587 5589 5590 5591 5592 5593 5594 5594 5594 5594 5595 5595 5594 5593 5593 5594 5592 5591 5590 5587 5586 5585 5583 5580 5574 5568 5564 5562 5560 5556 5554 5551 5547 5544
5587 5587 5588 5589 5590 5591 5592 5593 5593 5594 5594 5594 5594 5594 5594 5595 5594 5593 5592 5591 5590 5589 5587 5585 5585 5583 5580 5576 5571 5566 5562 5559 5557 5554 5551 5548 5543 5540
5591 5591 5591 5592 5593 5594 5595 5595 5595 5595 5596 5596 5595 5595 5595 5594 5593 5592 5591 5590 5589 5588 5586 5584 5582 5579 5574 5571 5567 5563 5560 5556 5553 5551 5548 5546 5542 5539